RH
18 18 17 16 16 16 15 15 14 14 13 12 11 10 10 9 9 8 9 13 12 12 13 17 20 20 17 20 20 25 28 18 18 19 21 26 38 39 44 47 42 44 42 44 41 39 38
43 21 19 18 17 16 14 13 12 11 10 9 9 8 8 7 7 7 7 9 10 9 12 15 21 21 20 26 24 29 30 20 21 21 26 36 39 42 51 59 50 45 50 51 42 42 41
36 20 18 16 14 13 12 11 11 10 9 9 8 8 7 6 6 5 5 5 7 7 12 14 20 22 24 19 25 27 22 21 24 25 26 34 39 35 55 55 52 51 56 50 46 46 47
22 19 16 15 14 13 13 13 13 12 12 11 11 10 10 9 8 6 5 4 5 8 16 17 23 22 19 27 29 28 25 23 28 31 30 36 38 39 50 55 52 57 56 49 27 47 37
21 18 16 16 16 15 15 15 15 14 14 14 13 12 12 12 11 9 7 5 6 14 18 22 22 28 25 33 33 29 27 32 41 39 47 50 45 62 64 66 47 52 50 47 32 40 40
25 20 19 18 18 18 17 17 16 16 15 15 14 13 14 14 12 11 9 7 9 14 28 25 30 36 31 29 30 33 34 48 46 50 53 62 67 74 78 65 38 32 46 35 35 30 44
33 28 24 21 17 15 14 14 13 12 10 8 8 7 7 9 15 14 10 7 9 20 17 10 19 22 33 33 35 37 40 43 45 51 56 69 62 66 56 66 41 30 34 38 36 32 39
38 29 21 16 12 10 8 7 6 6 6 7 6 6 6 5 7 17 15 11 12 19 40 18 26 28 36 39 36 34 37 40 54 58 58 54 63 46 42 47 58 40 38 44 40 37 35
28 15 10 8 6 5 4 4 3 2 1 1 1 1 1 5 4 23 27 25 20 26 56 37 44 40 39 41 40 34 43 44 57 56 57 56 35 40 34 31 37 40 45 42 37 35 37
13 7 5 3 3 2 2 1 1 1 1 1 1 1 1 1 20 20 35 30 27 50 57 34 41 42 38 39 40 39 40 45 47 52 51 56 43 44 44 44 41 48 37 38 37 41 40
6 4 3 2 2 2 1 1 1 1 1 1 1 1 1 1 4 17 31 32 34 76 41 27 43 40 44 42 43 48 44 47 51 43 39 43 36 38 45 43 38 39 35 39 38 46 56
5 4 4 3 2 2 2 2 1 1 1 1 1 1 2 3 7 20 29 32 56 55 31 34 39 43 43 44 42 50 51 49 49 51 51 52 38 37 39 34 35 32 34 39 55 62 81
6 5 5 4 3 2 2 2 2 2 2 2 2 4 8 7 8 18 28 45 62 50 23 35 37 36 37 41 45 57 61 62 49 47 45 44 46 41 37 40 36 36 41 65 64 86 71
6 9 6 4 3 2 2 2 2 2 2 2 3 11 19 19 10 6 24 38 28 30 38 42 36 37 30 32 35 52 55 63 56 47 57 69 55 46 38 38 37 50 46 70 48 77 55
19 10 6 4 3 2 2 2 2 2 2 2 5 22 21 25 17 18 46 63 42 42 48 54 38 26 25 25 28 33 52 53 42 53 59 64 52 35 43 35 34 39 55 39 47 53 77
12 7 8 5 4 3 2 2 2 2 2 2 6 34 25 23 29 41 54 59 50 48 50 49 44 31 34 38 36 32 32 29 37 39 37 42 49 36 35 36 36 44 39 56 64 55 59
14 12 9 5 4 3 2 2 2 2 2 3 15 38 34 34 47 44 53 59 54 49 45 54 55 55 52 54 42 38 34 36 56 50 45 39 46 41 42 47 40 55 50 50 52 61 67
31 20 9 5 3 2 2 2 1 2 2 3 15 53 44 25 54 78 71 64 52 55 49 50 57 60 65 67 72 56 52 51 58 59 56 48 55 66 49 37 35 43 44 50 59 53 60
40 17 9 5 4 3 2 2 1 1 1 5 43 50 49 41 74 83 52 49 45 56 61 60 65 70 63 71 78 67 60 56 49 65 74 65 68 76 58 43 40 40 38 42 43 52 59
34 18 10 8 5 3 3 2 2 2 3 16 45 64 30 42 42 50 52 49 51 47 58 55 63 61 75 74 67 78 68 59 48 46 51 69 74 67 65 48 58 60 50 45 46 72 58
29 15 11 11 11 10 7 5 3 3 5 20 36 75 74 74 55 55 50 61 68 61 48 47 58 52 53 83 86 71 58 55 44 44 51 73 96 78 71 66 68 68 67 62 61 57 60
22 17 22 27 26 26 25 22 18 7 9 12 59 66 64 70 55 48 65 68 65 62 52 53 60 54 57 63 55 65 63 65 66 57 57 51 84 78 90 75 72 69 56 60 62 58 53
25 38 53 52 36 38 44 35 36 27 17 42 64 71 67 71 67 64 77 71 65 64 52 55 54 55 63 58 49 49 50 49 49 53 50 57 60 68 65 65 50 55 72 64 77 66 80
45 90 70 37 27 32 42 44 50 44 48 50 56 61 60 79 68 71 71 70 66 67 68 55 52 61 52 48 54 51 48 48 46 46 44 58 66 68 72 62 86 63 43 70 84 80 74
73 50 35 26 24 23 26 39 51 51 58 62 55 58 68 84 73 72 69 77 69 59 65 64 58 55 62 54 66 70 52 45 39 43 52 51 59 66 76 72 47 58 47 50 82 91 65
34 25 25 33 57 40 26 60 59 42 53 66 68 73 72 86 77 67 80 79 82 86 87 68 60 59 64 63 79 72 68 65 62 72 48 56 88 82 73 73 64 69 45 47 68 92 71
24 31 57 91 87 50 33 78 88 79 67 72 81 78 83 85 64 74 77 82 77 81 95 83 77 75 75 84 78 81 70 73 87 75 67 62 73 94 90 93 91 77 52 54 95 96 88
25 39 49 58 58 50 70 76 72 73 72 78 71 80 86 82 68 60 66 75 80 85 96 70 82 82 91 92 86 84 90 81 78 55 46 57 71 88 85 92 95 64 56 76 90 88 66
34 42 40 33 57 62 71 82 80 46 69 75 68 82 91 99 70 71 61 61 61 64 87 91 78 88 88 100 85 93 72 88 82 83 40 53 63 67 60 68 67 69 67 68 69 68 66
Wind_Speed
6 5 4 5 6 6 7 7 7 8 9 10 10 11 12 13 14 15 14 13 13 14 15 11 9 7 7 4 6 6 4 4 4 5 5 4 4 3 1 3 4 3 3 5 9 14 18
5 4 4 4 4 5 6 7 8 9 10 11 12 12 13 14 15 16 16 15 16 17 14 11 8 7 5 3 4 4 5 5 4 5 4 3 3 2 2 2 0 4 9 16 14 10 8
1 2 3 5 6 7 8 9 10 11 11 12 13 13 14 15 16 17 17 17 18 18 13 11 6 6 7 7 5 4 5 6 6 6 4 3 2 1 1 3 3 4 5 7 6 5 5
1 3 5 6 8 10 10 11 12 13 14 15 15 15 16 16 16 16 17 17 18 16 14 8 4 5 4 6 7 8 8 7 6 3 4 4 5 2 2 5 4 2 2 3 3 6 2
5 6 7 9 10 11 12 13 14 16 16 16 17 17 17 17 17 17 18 18 17 14 10 4 6 5 4 4 6 5 8 5 4 4 2 3 1 2 2 2 3 2 4 4 7 9 3
7 8 9 10 12 13 14 15 16 17 17 18 18 18 17 17 17 17 16 17 14 11 3 5 5 4 3 2 2 3 5 6 3 4 4 1 2 2 2 3 5 5 4 5 6 2 4
7 8 9 10 12 13 14 15 16 18 18 18 19 18 17 16 15 16 14 12 6 3 4 10 11 7 4 4 3 3 5 6 5 2 1 1 2 7 9 8 4 2 3 7 4 6 5
9 10 11 12 12 13 14 15 16 17 18 18 19 18 16 15 13 11 8 4 5 8 9 11 9 14 14 5 2 4 7 4 3 3 2 3 7 7 4 5 6 5 4 8 7 4 6
9 10 11 12 13 14 16 16 17 17 18 18 17 17 17 13 11 4 5 5 6 10 5 3 1 1 1 8 4 4 9 3 5 3 5 6 5 4 3 3 3 4 6 5 8 3 4
9 10 10 11 13 14 15 15 16 16 17 17 17 17 16 10 3 5 3 5 7 7 4 3 1 1 1 3 1 5 10 3 3 5 4 6 5 6 6 9 8 6 7 8 4 2 4
9 10 11 12 12 13 14 14 14 15 16 17 16 16 15 9 5 2 3 5 7 3 4 2 1 2 2 2 1 4 10 5 5 3 3 8 3 5 6 8 8 9 4 6 4 4 2
9 10 11 12 12 13 13 13 13 14 15 16 15 14 12 8 3 1 2 3 2 6 4 1 1 2 1 3 2 5 4 8 3 3 3 9 5 4 8 5 7 2 2 2 3 4 1
8 9 10 11 10 11 11 12 14 15 16 16 15 13 11 9 4 2 1 1 5 4 4 5 2 2 3 4 4 6 5 4 4 2 3 4 5 4 4 1 1 2 4 3 3 1 6
7 8 10 10 10 11 12 14 16 16 16 16 13 8 10 10 6 0 3 4 2 3 2 4 6 7 5 3 3 3 2 3 7 3 1 2 10 5 3 6 5 6 6 5 6 3 4
5 8 8 10 12 13 14 15 16 17 17 15 11 6 12 11 6 2 2 4 4 1 3 7 8 4 4 2 4 4 4 5 4 8 7 4 7 2 4 3 5 3 5 2 2 2 2
6 7 10 11 12 14 16 17 17 17 17 15 9 3 14 11 5 2 4 2 1 4 5 3 2 2 3 6 7 7 3 2 2 2 1 4 5 5 3 2 4 5 2 1 1 3 6
7 8 10 13 14 15 16 18 18 17 16 14 6 3 12 7 3 2 3 3 2 4 8 4 3 5 4 4 4 4 6 4 6 7 5 2 4 6 2 6 7 1 3 4 2 4 4
6 9 12 14 15 17 17 18 19 17 15 12 3 2 10 6 3 3 2 4 6 4 7 4 5 3 3 5 5 4 6 4 18 8 6 2 3 6 10 6 4 4 7 7 4 4 3
6 9 13 15 16 17 17 17 18 18 17 13 4 3 8 7 3 3 5 5 4 7 6 5 4 4 4 3 5 4 4 9 26 12 6 6 3 4 8 4 2 3 3 4 1 3 5
7 11 13 14 16 18 19 19 17 15 13 7 3 3 7 11 9 4 3 4 6 12 5 9 5 7 6 4 3 6 8 4 24 20 26 8 4 6 10 4 3 7 6 7 3 2 3
6 9 12 14 16 18 19 19 18 15 10 4 5 3 3 3 6 5 4 5 5 8 10 13 4 9 8 5 6 4 7 13 11 18 12 6 6 6 8 7 5 12 13 11 9 7 8
6 9 11 13 15 17 20 22 23 18 12 10 5 4 4 5 6 3 9 6 7 6 3 3 7 9 5 5 11 18 10 3 7 4 8 7 6 11 15 7 10 16 14 13 12 11 13
6 8 11 12 14 16 18 20 23 24 19 11 8 6 2 7 4 3 2 4 4 8 6 10 13 8 5 8 14 22 26 26 24 21 19 9 4 3 13 4 8 9 7 6 11 13 3
5 7 8 11 12 13 15 16 18 19 22 18 14 7 3 1 2 1 2 5 3 8 6 13 15 7 12 26 29 23 27 31 28 23 24 12 9 7 6 3 7 7 11 15 16 13 14
3 5 8 10 11 12 12 12 12 13 14 14 14 11 3 0 2 3 8 4 12 15 6 9 7 21 20 13 4 6 6 4 5 2 9 10 11 6 4 8 4 4 10 8 6 10 13
3 5 7 9 10 12 11 10 11 10 11 10 12 11 5 1 5 0 3 3 3 2 6 7 24 18 17 4 2 4 3 4 5 10 7 12 5 6 1 5 6 6 9 25 9 4 17
3 5 6 8 8 10 8 8 9 9 10 10 9 7 5 3 2 2 3 4 4 2 3 9 9 11 5 2 3 2 3 2 3 5 6 6 4 4 6 4 5 10 14 7 1 4 18
3 4 4 6 6 7 7 8 10 9 8 10 8 6 4 4 12 3 9 11 9 8 2 9 8 3 3 2 2 4 2 3 3 4 4 4 4 3 3 4 2 25 7 5 6 15 19
3 3 5 6 5 5 2 5 8 8 7 10 10 8 8 6 9 19 7 3 8 14 14 5 5 7 4 2 2 3 3 2 2 2 5 1 4 3 2 2 11 16 15 10 16 17 18
Wind_Direction
87 77 60 41 31 26 19 15 8 7 2 2 358 355 353 351 352 351 348 342 339 334 324 314 304 296 294 275 261 251 263 285 316 332 349 12 47 22 24 324 328 199 278 277 265 276 280
81 61 44 33 19 6 360 356 355 352 352 350 348 347 345 345 345 345 344 337 333 332 326 318 294 282 269 251 254 255 254 271 302 335 343 7 33 358 313 284 263 317 294 287 291 269 252
66 48 17 359 352 348 349 349 347 345 342 342 341 342 341 341 340 341 338 335 330 329 319 312 291 276 267 255 242 247 248 265 290 315 311 316 324 311 289 302 304 290 316 319 234 253 234
12 360 356 350 346 345 347 345 341 338 337 337 336 336 336 334 335 335 334 333 327 323 319 303 275 284 248 254 252 245 256 250 263 291 306 300 301 269 228 309 314 307 75 344 274 154 231
1 356 349 346 345 341 340 339 336 334 333 330 329 327 326 327 330 332 333 327 323 315 312 278 292 279 277 249 252 256 249 251 256 310 322 297 251 154 149 81 357 338 249 223 303 202 132
9 358 350 344 338 337 335 336 334 331 328 326 326 325 323 323 324 325 331 328 320 311 295 300 280 301 259 295 261 269 211 219 270 300 312 200 102 90 37 115 226 214 231 250 233 237 196
357 345 341 338 337 334 334 334 331 329 329 328 328 327 328 322 322 325 335 340 336 304 304 261 282 275 260 261 266 244 222 228 241 253 278 240 50 222 214 205 209 227 221 245 249 232 208
345 337 334 336 333 332 332 332 331 329 328 326 326 324 325 327 324 325 347 14 1 308 304 298 296 262 242 245 273 231 218 202 180 237 152 17 243 242 234 215 223 234 262 265 280 241 185
336 332 334 332 334 334 335 336 333 332 331 334 336 330 325 316 316 323 2 26 342 335 301 323 3 6 234 226 237 241 199 204 197 225 201 185 234 58 183 227 218 225 216 249 230 327 271
328 336 338 340 340 340 339 342 343 344 343 343 347 343 345 329 306 318 317 339 341 347 44 272 184 123 164 149 206 226 199 216 242 236 215 233 267 220 227 253 177 257 213 230 227 67 245
341 342 346 347 346 345 345 349 350 349 348 345 347 347 345 351 302 269 300 324 335 356 19 291 163 158 174 200 183 207 191 211 230 225 120 251 245 222 221 227 166 235 169 199 192 193 41
347 349 350 349 349 348 351 354 354 351 347 348 348 350 352 354 350 293 303 330 352 44 263 326 68 357 303 208 225 165 193 222 272 283 225 246 283 214 222 228 200 113 274 67 58 114 267
346 346 347 345 352 355 357 355 353 354 351 350 349 357 3 359 342 272 265 33 37 126 290 342 351 338 312 232 233 181 175 186 204 349 274 311 231 249 190 253 230 160 85 300 321 345 234
349 349 340 353 359 4 4 1 358 353 351 346 346 4 10 6 3 78 145 58 143 278 346 358 337 302 229 357 251 191 197 244 235 209 304 209 310 187 176 199 201 189 183 179 236 210 256
354 346 351 1 8 6 6 2 358 353 350 346 342 352 14 11 6 135 115 71 220 292 333 347 330 337 307 3 5 359 221 230 234 172 185 191 265 244 206 238 156 198 191 217 166 90 49
348 358 7 14 13 9 2 1 360 358 352 348 343 15 13 3 21 121 75 239 320 30 348 3 269 336 303 335 348 352 300 286 296 91 166 261 277 216 244 240 243 193 190 104 347 207 247
3 11 15 14 11 11 3 358 360 0 355 350 350 55 5 11 49 40 116 225 326 13 13 352 300 300 291 314 250 253 261 319 3 314 326 290 184 277 110 198 207 169 242 225 184 160 210
17 20 15 13 8 9 6 358 356 356 2 356 21 58 4 357 78 45 67 331 339 357 18 328 334 308 318 332 289 267 246 345 360 322 323 344 257 247 234 248 251 218 219 185 182 219 242
20 21 14 10 8 9 5 3 358 358 1 3 26 358 10 8 80 22 337 344 354 9 18 347 320 33 360 295 313 275 332 23 5 358 14 334 299 314 315 354 308 237 241 220 181 27 202
25 15 15 11 6 6 4 6 4 6 2 22 28 30 29 58 62 85 23 323 343 16 82 351 312 34 355 329 300 307 326 348 339 343 327 309 240 212 256 260 20 292 299 328 294 208 245
19 16 20 13 10 10 10 11 18 20 24 55 58 71 22 353 3 30 8 14 23 15 358 9 30 40 3 300 313 262 330 322 314 312 340 2 263 220 265 279 271 274 285 286 229 235 228
27 27 27 22 19 19 21 21 22 32 37 64 66 43 44 27 359 54 7 22 15 351 297 347 4 331 312 286 284 293 281 250 258 311 339 321 274 328 292 277 270 276 273 261 257 251 251
48 39 29 26 23 20 22 25 25 30 36 72 77 71 97 22 11 56 66 326 335 344 310 3 334 320 309 316 309 298 286 273 259 261 262 250 272 292 270 332 341 298 326 290 72 36 10
55 40 23 17 15 17 19 23 29 34 42 58 61 63 63 43 70 98 297 319 330 335 294 303 302 290 316 315 307 288 283 266 265 262 249 240 214 221 272 231 236 137 42 63 77 45 28
53 15 8 13 19 20 19 20 26 30 40 46 62 68 68 137 288 320 333 324 329 338 308 294 332 313 322 328 301 304 288 318 325 84 33 253 231 245 219 203 262 55 358 340 318 46 11
17 7 16 24 21 16 18 28 23 28 28 34 47 52 102 155 227 243 287 280 279 298 311 286 316 319 313 261 255 270 302 291 307 334 354 24 209 224 225 225 222 355 318 328 166 70 20
42 32 32 28 6 6 22 35 19 19 13 24 32 34 71 280 267 180 271 270 274 258 256 290 325 330 354 296 283 260 265 303 298 326 335 355 11 311 286 287 114 338 349 356 26 37 354
48 32 14 1 359 2 27 8 3 5 10 352 15 26 16 265 298 232 308 283 273 263 219 303 335 325 322 333 316 352 267 286 331 291 320 18 352 11 351 303 245 2 25 53 350 344 341
52 16 352 343 346 344 346 3 339 355 21 339 344 345 327 281 279 299 298 355 319 300 272 237 237 305 267 307 359 291 308 328 288 287 343 3 1 307 221 20 27 56 71 45 356 330 332